Погода в Ляскелях

Россия / Республика Карелия     61°45′41″N   31°00′36″E
темп.,
°C
ветер,
м/с
пор.,
м/с
влажн.,
%
обл.,
%
осадки,
мм/ч
давл.,
гПа
погр.,
м
4 декабря, сб
сб400:00−10св6148571 0.0 1001614
03:00−10св61484100 0.0 1002657
06:00−11св61483100 0.0 1003647
09:00−12св5137999 0.0 1006647
12:00−12св5137596 0.0 1008702
15:00−12св5127599 0.0 1010702
18:00−13св4117938 0.0 1013606
21:00−14св4118316 0.0 1015516
5 декабря, вс
вс500:00−15св4108520 0.0 1017435
03:00−16св310886 0.0 1019374
06:00−17св310896 0.0 1020342
09:00−17св39916 0.0 1022277
12:00−17св38897 0.0 1024285
15:00−17св379012 0.0 1025237
18:00−18св389311 0.0 1026234
21:00−17всв389537 0.0 1027215
6 декабря, пн
пн600:00−18всв269622 0.0 1028142
03:00−17всв269621 0.0 1029122
06:00−15св279874 0.0 1028163
09:00−13всв299594 0.1 1028243
12:00−11всв389485 0.1 1027250
15:00−10в289474 0.3 1026375
18:00−13всв289875 0.0 1025179
21:00−13в399454 0.0 1025313
7 декабря, вт
вт700:00−14в399220 0.0 1023346
03:00−15всв39905 0.0 1022309
06:00−16св389170 0.0 1020229
09:00−13св4991100 0.1 1019382
12:00−11св4992100 0.3 1018398
15:00−10св4893100 0.9 1016392
18:00−10ссв4994100 0.7 1016368
21:00−11ссв4993100 1.1 1015325
8 декабря, ср
ср800:00−10с3893100 0.3 1015327
03:00−11с3893100 0.6 1015307
06:00−11с3793100 0.2 1015317
09:00−11ссз379266 0.3 1015319
12:00−11ссз379435 0.0 1017271
15:00−12сз269658 0.0 1018142
18:00−14сз249864 0.0 101969
21:00−15сз249861 0.0 102062